San Diego Brown, CA

2:42 AM PST on January 18, 2018 (GMT -0800)
Brown Municipal

Weather History for KSDM - October, 2012

Change the Weather History Date:

Wednesday, October 17, 2012

  Actual Average Record
Temperature  
Mean Temperature 79 °F 65 °F  
Max Temperature 99 °F 75 °F 98 °F (1958)
Min Temperature 61 °F 55 °F 52 °F (2007)
Degree Days  
Heating Degree Days 0 2  
Month to date heating degree days 18  
Since 1 July heating degree days 28  
Cooling Degree Days 14 2  
Month to date cooling degree days 41  
Year to date cooling degree days 586  
Growing Degree Days 29 (Base 50)    
Moisture  
Dew Point 43 °F    
Average Humidity 31    
Maximum Humidity 70    
Minimum Humidity 9    
Precipitation  
Precipitation 0.00 in 0.02 in 0.52 in (2004)
Month to date precipitation 0.21  
Year to date precipitation 9.02  
Sea Level Pressure  
Sea Level Pressure 29.76 in    
Wind  
Wind Speed 7 mph (ESE)    
Max Wind Speed 20 mph    
Max Gust Speed 18 mph    
Visibility 10 miles    
Events      
T = Trace of Precipitation, MM = Missing Value Source: NWS Daily Summary

Daily Weather History Graph

Daily Weather History Graph

Search for Another Location

Airport or City:

Trip Planner

Search our weather history database for the weather conditions in past years. The results will help you decide how hot, cold, wet, or windy it might be!

Date:

Astronomy

Oct. 17, 2012 Rise Set
Actual Time 6:53 AM PDT 6:12 PM PDT
Civil Twilight 6:28 AM PDT 6:36 PM PDT
Nautical Twilight 6:00 AM PDT 7:05 PM PDT
Astronomical Twilight 5:31 AM PDT 7:33 PM PDT
Moon 9:23 AM PDT (10/17) 8:02 PM PDT (10/17)
Length of Visible Light 12h 07m
Length of Day
11h 18m
Waxing Crescent, 8% of the Moon is Illuminated
Oct 17
Waxing Crescent
Oct 21
First Quarter
Oct 29
Full
Nov 6
Last Quarter
Nov 13
New

Hourly Weather History & Observations

Time (PDT) Temp. Dew Point Humidity Pressure Visibility Wind Dir Wind Speed Gust Speed Precip Events Conditions
12:53 AM 64.0 °F 54.0 °F 70% 29.75 in 10.0 mi ENE 3.5 mph - N/A   Clear
1:53 AM 66.0 °F 50.0 °F 56% 29.75 in 10.0 mi SE 3.5 mph - N/A   Clear
2:53 AM 64.9 °F 48.0 °F 54% 29.75 in 10.0 mi East 4.6 mph - N/A   Clear
3:53 AM 61.0 °F 48.9 °F 64% 29.74 in 10.0 mi East 5.8 mph - N/A   Clear
4:53 AM 61.0 °F 48.0 °F 62% 29.74 in 10.0 mi SE 8.1 mph - N/A   Clear
5:53 AM 63.0 °F 46.0 °F 54% 29.74 in 10.0 mi SE 5.8 mph - N/A   Clear
6:53 AM 66.0 °F 41.0 °F 40% 29.74 in 10.0 mi SSE 8.1 mph - N/A   Clear
7:53 AM 71.1 °F 42.1 °F 35% 29.75 in 10.0 mi East 4.6 mph - N/A   Clear
8:53 AM 81.0 °F 37.9 °F 21% 29.76 in - North - - N/A   Clear
9:26 AM 87.8 °F 35.6 °F 16% 29.78 in - North - - N/A   Partly Cloudy
9:53 AM 91.0 °F 35.1 °F 14% 29.76 in 10.0 mi SE 19.6 mph - N/A   Clear
10:53 AM 97.0 °F 33.1 °F 11% 29.75 in 10.0 mi ESE 13.8 mph - N/A   Clear
11:53 AM 97.0 °F 28.0 °F 9% 29.74 in 10.0 mi East 11.5 mph 18.4 mph N/A   Clear
12:53 PM 90.0 °F 45.0 °F 21% 29.73 in 10.0 mi WNW 10.4 mph 16.1 mph N/A   Clear
1:53 PM 89.1 °F 48.9 °F 25% 29.72 in 10.0 mi WNW 6.9 mph - N/A   Clear
2:53 PM 90.0 °F 43.0 °F 19% 29.72 in 10.0 mi Variable 4.6 mph - N/A   Clear
3:53 PM 90.0 °F 45.0 °F 21% 29.72 in 10.0 mi Variable 5.8 mph - N/A   Clear
4:53 PM 88.0 °F 45.0 °F 22% 29.73 in 10.0 mi WNW 4.6 mph - N/A   Clear
5:53 PM 86.0 °F 45.0 °F 24% 29.74 in 10.0 mi West 3.5 mph - N/A   Clear
6:53 PM 82.0 °F 46.9 °F 29% 29.77 in 10.0 mi Calm Calm - N/A   Clear
7:53 PM 82.9 °F 41.0 °F 23% 29.79 in 10.0 mi Calm Calm - N/A   Clear
8:53 PM 86.0 °F 36.0 °F 17% 29.81 in 10.0 mi ESE 15.0 mph - N/A   Clear
9:53 PM 84.9 °F 37.9 °F 19% 29.81 in 10.0 mi SE 13.8 mph - N/A   Clear
10:53 PM 81.0 °F 42.1 °F 25% 29.83 in 10.0 mi East 9.2 mph - N/A   Clear
11:53 PM 82.0 °F 44.1 °F 26% 29.84 in 10.0 mi SSE 11.5 mph - N/A   Clear